GW4881 Weather Reports


time (UTC)temp
F
wind
direction
speed
knots
gust
knots
rain 1hr
in
rain 24hr
in
rain mn
in
humidity
%
barometer
mb
20260505080304 89 1 1.7 3.5 0.00 0.00 0.00 52 1012.0
20260505075806 89 214 1.7 2.6 0.00 0.00 0.00 53 1013.0
20260505075304 89 90 0.9 2.6 0.00 0.00 0.00 53 1013.0
20260505074803 90 299 1.7 3.5 0.00 0.00 0.00 51 1013.0
20260505074301 89 147 0.9 0.9 0.00 0.00 0.00 52 1013.0
20260505073804 89 198 2.6 4.3 0.00 0.00 0.00 53 1013.0
20260505073305 89 332 1.7 2.6 0.00 0.00 0.00 53 1013.0
20260505072804 88 268 0.9 3.5 0.00 0.00 0.00 54 1013.0
20260505072305 89 23 2.6 4.3 0.00 0.00 0.00 55 1013.0
20260505071802 89 307 1.7 3.5 0.00 0.00 0.00 55 1013.0
20260505071302 89 291 1.7 2.6 0.00 0.00 0.00 55 1013.0
20260505070804 88 333 1.7 3.5 0.00 0.00 0.00 56 1013.0
20260505070303 87 263 0.9 1.7 0.00 0.00 0.00 58 1014.0
20260505065803 87 294 2.6 4.3 0.00 0.00 0.00 57 1014.0
20260505065303 87 286 0.0 1.7 0.00 0.00 0.00 58 1014.0
20260505064804 88 294 1.7 4.3 0.00 0.00 0.00 56 1014.0
20260505064301 87 317 1.7 2.6 0.00 0.00 0.00 58 1014.0
20260505063802 87 47 0.9 1.7 0.00 0.00 0.00 60 1014.0
20260505063302 87 283 1.7 3.5 0.00 0.00 0.00 60 1014.0
20260505062804 87 300 2.6 3.5 0.00 0.00 0.00 58 1014.0
20260505062304 86 282 1.7 2.6 0.00 0.00 0.00 61 1014.0
20260505061805 87 301 1.7 3.5 0.00 0.00 0.00 61 1014.0
20260505061303 87 323 0.9 1.7 0.00 0.00 0.00 61 1014.0
20260505060803 86 153 1.7 2.6 0.00 0.00 0.00 60 1014.0
20260505060302 86 119 0.9 1.7 0.00 0.00 0.00 62 1014.0
20260505055801 86 302 2.6 5.2 0.00 0.00 0.00 62 1014.0
20260505055304 86 197 2.6 3.5 0.00 0.00 0.00 61 1014.0
20260505054802 86 195 1.7 2.6 0.00 0.00 0.00 62 1014.0
20260505054302 85 213 0.0 0.9 0.00 0.00 0.00 62 1014.0
20260505053801 86 225 1.7 4.3 0.00 0.00 0.00 62 1014.0
20260505053303 85 205 1.7 2.6 0.00 0.00 0.00 61 1014.0
20260505052802 85 138 0.9 1.7 0.00 0.00 0.00 62 1014.0
20260505052304 85 210 1.7 2.6 0.00 0.00 0.00 64 1014.0
20260505051804 85 295 1.7 4.3 0.00 0.00 0.00 63 1015.0
20260505051302 84 35 0.9 1.7 0.00 0.00 0.00 64 1014.0
20260505050802 83 302 1.7 2.6 0.00 0.00 0.00 66 1015.0
20260505050303 83 326 1.7 2.6 0.00 0.00 0.00 67 1015.0
20260505041303 82 298 0.9 2.6 0.00 0.00 0.00 70 1015.0
20260505040802 82 289 1.7 3.5 0.00 0.00 0.00 70 1015.0
20260505040302 82 301 2.6 3.5 0.00 0.00 0.00 70 1015.0
20260505035802 81 220 2.6 3.5 0.00 0.00 0.00 71 1015.0
20260505035301 80 297 1.7 3.5 0.00 0.00 0.00 71 1015.0
20260505034803 80 356 0.9 2.6 0.00 0.00 0.00 75 1015.0
20260505034302 80 311 1.7 3.5 0.00 0.00 0.00 73 1015.0
20260505033801 80 263 1.7 4.3 0.00 0.00 0.00 73 1015.0
20260505033302 80 293 1.7 3.5 0.00 0.00 0.00 74 1015.0
20260505032803 79 293 2.6 3.5 0.00 0.00 0.00 74 1015.0
20260505032304 80 311 2.6 4.3 0.00 0.00 0.00 74 1015.0
20260505031802 79 275 1.7 2.6 0.00 0.00 0.00 74 1015.0
20260505031301 79 268 0.9 1.7 0.00 0.00 0.00 74 1015.0
20260505030801 79 301 0.9 2.6 0.00 0.00 0.00 76 1015.0
20260505030302 79 305 0.9 2.6 0.00 0.00 0.00 75 1015.0
20260505025801 79 177 0.9 1.7 0.00 0.00 0.00 74 1015.0
20260505025304 79 215 1.7 3.5 0.00 0.00 0.00 75 1015.0
20260505024802 79 279 1.7 3.5 0.00 0.00 0.00 74 1015.0
20260505024301 79 76 0.9 1.7 0.00 0.00 0.00 74 1015.0
20260505023802 78 260 1.7 4.3 0.00 0.00 0.00 74 1015.0
20260505023302 78 106 0.0 0.9 0.00 0.00 0.00 75 1015.0
20260505022802 78 259 1.7 3.5 0.00 0.00 0.00 75 1015.0
20260505022304 78 214 1.7 3.5 0.00 0.00 0.00 75 1015.0
20260505021801 77 207 1.7 3.5 0.00 0.00 0.00 75 1015.0
20260505021302 77 220 1.7 2.6 0.00 0.00 0.00 75 1015.0
20260505020801 77 212 0.9 1.7 0.00 0.00 0.00 75 1015.0
20260505020303 77 212 0.9 1.7 0.00 0.00 0.00 74 1015.0
20260505015802 77 198 0.9 3.5 0.00 0.00 0.00 74 1015.0
20260505015303 77 231 0.9 2.6 0.00 0.00 0.00 74 1015.0
20260505014802 77 203 1.7 3.5 0.00 0.00 0.00 73 1015.0
20260505014302 77 252 1.7 2.6 0.00 0.00 0.00 74 1015.0
20260505013802 77 230 1.7 3.5 0.00 0.00 0.00 74 1015.0
20260505013301 76 249 0.9 2.6 0.00 0.00 0.00 74 1015.0
20260505012802 76 222 0.9 1.7 0.00 0.00 0.00 74 1015.0
20260505012301 76 233 0.0 0.9 0.00 0.00 0.00 74 1015.0
20260505011805 76 0 0.0 0.0 0.00 0.00 0.00 75 1015.0
20260505011302 76 0 0.0 0.0 0.00 0.00 0.00 75 1015.0
20260505010312 76 225 0.9 1.7 0.00 0.00 0.00 75 1014.0
20260505005802 75 232 0.9 1.7 0.00 0.00 0.00 75 1014.0
20260505005303 75 0 0.0 0.0 0.00 0.00 0.00 75 1014.0
20260505004802 75 176 0.0 0.9 0.00 0.00 0.00 75 1014.0
20260505004301 75 142 0.0 0.9 0.00 0.00 0.00 75 1014.0
20260505003803 75 322 0.0 0.9 0.00 0.00 0.00 75 1014.0
20260505003303 76 89 0.0 1.7 0.00 0.00 0.00 74 1014.0
20260505002802 76 62 0.9 1.7 0.00 0.00 0.00 74 1014.0
20260505002303 76 58 0.0 1.7 0.00 0.00 0.00 74 1014.0
20260505001803 76 300 0.0 1.7 0.00 0.00 0.00 74 1014.0
20260505001303 76 76 0.9 2.6 0.00 0.00 0.00 74 1014.0
20260505000801 76 101 0.0 0.9 0.00 0.00 0.00 74 1014.0
20260505000301 76 95 0.0 1.7 0.00 0.00 0.00 74 1014.0
20260504235801 76 224 0.0 0.9 0.00 0.00 0.00 73 1014.0
20260504235302 76 73 0.9 3.5 0.00 0.00 0.00 73 1014.0
20260504234802 76 62 1.7 2.6 0.00 0.00 0.00 73 1014.0
20260504234305 76 253 0.0 0.9 0.00 0.00 0.00 73 1014.0
20260504233802 76 60 1.7 1.7 0.00 0.00 0.00 73 1014.0
20260504233302 76 65 1.7 2.6 0.00 0.00 0.00 73 1014.0
20260504232801 76 80 0.9 2.6 0.00 0.00 0.00 73 1014.0
20260504232303 76 77 0.9 2.6 0.00 0.00 0.00 73 1014.0
20260504231803 76 95 0.9 1.7 0.00 0.00 0.00 73 1014.0
20260504231305 76 71 0.9 3.5 0.00 0.00 0.00 73 1014.0
20260504230802 76 59 0.9 3.5 0.00 0.00 0.00 72 1014.0
20260504230302 77 68 1.7 3.5 0.00 0.00 0.00 71 1014.0
20260504225801 77 60 1.7 4.3 0.00 0.00 0.00 71 1014.0
20260504225304 77 68 0.0 0.9 0.00 0.00 0.00 69 1014.0
20260504224802 78 86 0.9 2.6 0.00 0.00 0.00 69 1014.0
20260504224302 78 34 0.0 1.7 0.00 0.00 0.00 69 1014.0
20260504223802 78 91 0.9 2.6 0.00 0.00 0.00 69 1014.0
20260504223302 78 232 0.0 0.9 0.00 0.00 0.00 69 1014.0
20260504222803 78 66 0.0 0.9 0.00 0.00 0.00 69 1014.0
20260504222305 78 32 0.0 1.7 0.00 0.00 0.00 69 1014.0
20260504221801 78 203 0.0 1.7 0.00 0.00 0.00 69 1014.0
20260504221303 78 30 0.0 0.0 0.00 0.00 0.00 69 1013.0
20260504220802 78 190 0.9 2.6 0.00 0.00 0.00 69 1013.0
20260504220304 78 203 0.0 0.9 0.00 0.00 0.00 70 1013.0
20260504215803 78 235 0.9 1.7 0.00 0.00 0.00 69 1013.0
20260504215311 78 228 0.9 1.7 0.00 0.00 0.00 69 1013.0
20260504214802 78 42 0.0 0.9 0.00 0.00 0.00 68 1013.0
20260504214305 78 238 1.7 3.5 0.00 0.00 0.00 68 1013.0
20260504213802 78 253 0.9 2.6 0.00 0.00 0.00 68 1013.0
20260504213304 78 192 0.9 1.7 0.00 0.00 0.00 68 1013.0
20260504212805 78 212 0.9 2.6 0.00 0.00 0.00 68 1013.0
20260504212304 78 258 0.9 1.7 0.00 0.00 0.00 68 1013.0
20260504211803 78 233 1.7 1.7 0.00 0.00 0.00 67 1014.0
20260504211304 78 239 1.7 3.5 0.00 0.00 0.00 67 1014.0
20260504210802 78 224 0.0 1.7 0.00 0.00 0.00 67 1014.0
20260504210303 78 165 0.0 0.9 0.00 0.00 0.00 67 1014.0
20260504205802 78 139 0.0 1.7 0.00 0.00 0.00 67 1013.0
20260504205305 78 235 1.7 2.6 0.00 0.00 0.00 67 1013.0
20260504204806 78 63 0.9 0.9 0.00 0.00 0.00 67 1014.0
20260504204302 78 252 1.7 3.5 0.00 0.00 0.00 67 1013.0
20260504203802 78 233 1.7 3.5 0.00 0.00 0.00 67 1013.0
20260504203303 78 45 0.0 1.7 0.00 0.00 0.00 67 1013.0
20260504202806 78 52 0.0 0.9 0.00 0.00 0.00 67 1013.0
20260504202304 78 234 1.7 2.6 0.00 0.00 0.00 67 1013.0
20260504201804 78 228 0.9 1.7 0.00 0.00 0.00 67 1013.0
20260504201303 78 191 0.0 1.7 0.00 0.00 0.00 67 1013.0
20260504200805 78 245 0.9 2.6 0.00 0.00 0.00 67 1013.0
20260504200304 78 243 0.9 1.7 0.00 0.00 0.00 67 1013.0
20260504195806 78 242 2.6 4.3 0.00 0.00 0.00 67 1013.0
20260504195304 78 222 0.9 2.6 0.00 0.00 0.00 67 1013.0
20260504194804 78 227 1.7 3.5 0.00 0.00 0.00 67 1013.0
20260504194306 78 183 0.9 1.7 0.00 0.00 0.00 67 1013.0
20260504193803 78 228 1.7 3.5 0.00 0.00 0.00 67 1013.0
20260504193302 78 227 0.9 1.7 0.00 0.00 0.00 67 1013.0
20260504192804 78 164 0.9 1.7 0.00 0.00 0.00 67 1013.0
20260504192304 78 232 2.6 5.2 0.00 0.00 0.00 67 1013.0
20260504191802 78 237 1.7 3.5 0.00 0.00 0.00 67 1013.0
20260504191303 79 203 1.7 3.5 0.00 0.00 0.00 66 1013.0
20260504190804 79 218 2.6 3.5 0.00 0.00 0.00 65 1013.0
20260504190306 79 213 1.7 3.5 0.00 0.00 0.00 65 1013.0
20260504185803 79 242 0.9 1.7 0.00 0.00 0.00 64 1013.0
20260504185304 79 238 1.7 4.3 0.00 0.00 0.00 64 1013.0
20260504184803 79 250 0.9 1.7 0.00 0.00 0.00 64 1013.0
20260504184304 79 313 0.0 1.7 0.00 0.00 0.00 64 1014.0
20260504183804 79 172 0.0 0.9 0.00 0.00 0.00 65 1014.0
20260504183304 79 230 2.6 4.3 0.00 0.00 0.00 64 1014.0
20260504182806 79 216 1.7 4.3 0.00 0.00 0.00 63 1014.0
20260504182304 79 330 0.0 1.7 0.00 0.00 0.00 64 1014.0
20260504181803 79 240 1.7 1.7 0.00 0.00 0.00 63 1014.0
20260504181306 79 249 1.7 2.6 0.00 0.00 0.00 63 1014.0
20260504180804 79 227 0.9 1.7 0.00 0.00 0.00 64 1014.0
20260504180303 79 70 0.0 1.7 0.00 0.00 0.00 64 1014.0
20260504175803 79 342 0.9 0.9 0.00 0.00 0.00 64 1014.0
20260504175305 79 219 0.0 1.7 0.00 0.00 0.00 65 1014.0
20260504174806 79 97 0.0 1.7 0.00 0.00 0.00 65 1014.0
20260504174307 79 87 1.7 3.5 0.00 0.00 0.00 65 1014.0
20260504173803 79 55 0.0 1.7 0.00 0.00 0.00 64 1014.0
20260504173304 79 355 0.9 2.6 0.00 0.00 0.00 65 1014.0
20260504172804 79 94 0.9 3.5 0.00 0.00 0.00 65 1014.0
20260504172304 79 30 0.9 2.6 0.00 0.00 0.00 65 1014.0
20260504171803 79 112 0.0 0.9 0.00 0.00 0.00 66 1014.0
20260504171304 79 76 1.7 3.5 0.00 0.00 0.00 65 1014.0
20260504170804 79 53 1.7 3.5 0.00 0.00 0.00 66 1014.0
20260504170304 79 101 0.9 3.5 0.00 0.00 0.00 66 1014.0
20260504160306 80 60 0.9 2.6 0.00 0.00 0.00 64 1014.0
20260504150804 80 328 1.7 2.6 0.00 0.00 0.00 63 1013.0
20260504150305 81 333 0.9 1.7 0.00 0.00 0.00 64 1013.0
20260504141305 81 245 1.7 2.6 0.00 0.00 0.00 64 1013.0
20260504140804 81 303 0.9 2.6 0.00 0.00 0.00 65 1013.0
20260504140302 81 297 0.0 1.7 0.00 0.00 0.00 65 1013.0
20260504130804 84 208 2.6 5.2 0.00 0.00 0.00 60 1012.0
20260504130303 85 289 1.7 3.5 0.00 0.00 0.00 58 1012.0
20260504120305 92 283 1.7 4.3 0.00 0.00 0.00 47 1010.0
20260504110304 92 6 1.7 3.5 0.00 0.00 0.00 49 1010.0
20260504100305 92 74 1.7 2.6 0.00 0.00 0.00 49 1010.0
20260504081804 91 9 4.3 7.8 0.00 0.00 0.00 53 1012.0
20260504081305 91 72 1.7 3.5 0.00 0.00 0.00 53 1012.0
20260504080810 91 192 1.7 3.5 0.00 0.00 0.00 51 1012.0